HVN679 VVTS-WMKK

Flight info

Callsign HVN679
Flight time 1h 37m
Altitude 38000
Route NIXIV5H NIXIV L643 CN M765 BITOD/N0457F380 M765 IGARI R208 VKR Y346 PULIP PULIP3J
Aircraft A321/M-SDE3FGHIRWY/LB1

Departure

Time 2026-05-08 06:36
Airport Tan Son Nhat International Airport (VVTS)

Arrival

Time 2026-05-08 08:13
Airport Kuala Lumpur International Airport (WMKK)
Time Latitude Longitude Altitude Speed Heading
2026-05-08 06:26 10.81753 106.66372 41 ft 0 kts 160°
2026-05-08 06:30 10.81759 106.66370 41 ft 4 kts 160°
2026-05-08 06:31 10.81785 106.66361 40 ft 4 kts 160°
2026-05-08 06:31 10.81810 106.66352 39 ft 3 kts 160°
2026-05-08 06:31 10.81829 106.66343 42 ft 4 kts 131°
2026-05-08 06:31 10.81843 106.66324 39 ft 1 kts 131°
2026-05-08 06:33 10.81837 106.66333 40 ft 6 kts 122°
2026-05-08 06:33 10.81852 106.66363 42 ft 5 kts 63°
2026-05-08 06:34 10.81872 106.66403 41 ft 8 kts 65°
2026-05-08 06:34 10.81899 106.66470 41 ft 11 kts 67°
2026-05-08 06:34 10.81931 106.66551 42 ft 13 kts 69°
2026-05-08 06:34 10.81981 106.66626 42 ft 13 kts 12°
2026-05-08 06:35 10.82076 106.66603 43 ft 14 kts 339°
2026-05-08 06:35 10.82116 106.66518 43 ft 14 kts 290°
2026-05-08 06:35 10.82152 106.66413 40 ft 17 kts 287°
2026-05-08 06:35 10.82122 106.66298 42 ft 21 kts 249°
2026-05-08 06:36 10.81974 106.65908 43 ft 99 kts 249°
2026-05-08 06:36 10.81638 106.65029 45 ft 164 kts 246°
2026-05-08 06:36 10.81189 106.63924 637 ft 170 kts 246°
2026-05-08 06:36 10.80760 106.62806 1374 ft 170 kts 248°
2026-05-08 06:37 10.80337 106.61671 2071 ft 174 kts 248°
2026-05-08 06:37 10.79884 106.60457 2392 ft 194 kts 248°
2026-05-08 06:37 10.79374 106.59100 2631 ft 216 kts 247°
2026-05-08 06:37 10.78804 106.57593 2806 ft 241 kts 248°
2026-05-08 06:38 10.78169 106.55919 3110 ft 266 kts 248°
2026-05-08 06:38 10.77157 106.54315 3622 ft 275 kts 219°
2026-05-08 06:38 10.75433 106.53517 4283 ft 276 kts 186°
2026-05-08 06:38 10.73510 106.53516 4994 ft 277 kts 170°
2026-05-08 06:39 10.71622 106.53856 5726 ft 280 kts 165°
2026-05-08 06:39 10.69712 106.54305 6441 ft 283 kts 164°
2026-05-08 06:39 10.67777 106.54756 7141 ft 287 kts 165°
2026-05-08 06:39 10.65817 106.55169 7875 ft 289 kts 166°
2026-05-08 06:40 10.63829 106.55545 8572 ft 293 kts 167°
2026-05-08 06:40 10.61799 106.55896 8918 ft 296 kts 168°
2026-05-08 06:40 10.59757 106.56226 9173 ft 300 kts 169°
2026-05-08 06:40 10.57695 106.56547 9914 ft 300 kts 169°
2026-05-08 06:41 10.55571 106.56877 10184 ft 319 kts 169°
2026-05-08 06:41 10.53302 106.57230 10319 ft 340 kts 169°
2026-05-08 06:41 10.50922 106.57601 10663 ft 349 kts 169°
2026-05-08 06:41 10.48532 106.57972 10763 ft 352 kts 168°
2026-05-08 06:42 10.46100 106.58348 10782 ft 353 kts 168°
2026-05-08 06:42 10.43675 106.58727 10783 ft 352 kts 168°
2026-05-08 06:42 10.41253 106.59106 10786 ft 352 kts 169°
2026-05-08 06:42 10.38817 106.59490 10994 ft 356 kts 169°
2026-05-08 06:43 10.36372 106.59872 11646 ft 356 kts 169°
2026-05-08 06:43 10.34747 106.60125 12047 ft 357 kts 169°
2026-05-08 06:43 10.32280 106.60507 12641 ft 359 kts 169°
2026-05-08 06:43 10.29790 106.60892 13197 ft 362 kts 168°
2026-05-08 06:44 10.27290 106.61279 13666 ft 365 kts 169°
2026-05-08 06:44 10.24780 106.61668 13763 ft 364 kts 168°
2026-05-08 06:44 10.22271 106.62057 13788 ft 364 kts 168°
2026-05-08 06:44 10.19797 106.62623 13881 ft 366 kts 162°
2026-05-08 06:45 10.17375 106.63318 14407 ft 367 kts 162°
2026-05-08 06:45 10.14896 106.63986 14912 ft 370 kts 166°
2026-05-08 06:45 10.12324 106.64255 15373 ft 375 kts 178°
2026-05-08 06:45 10.09698 106.64214 15856 ft 378 kts 178°
2026-05-08 06:46 10.07058 106.64172 16331 ft 380 kts 178°
2026-05-08 06:46 10.04405 106.64136 16780 ft 382 kts 178°
2026-05-08 06:46 10.01730 106.64106 17215 ft 385 kts 178°
2026-05-08 06:46 9.99044 106.64077 17664 ft 387 kts 179°
2026-05-08 06:47 9.96338 106.64049 18110 ft 390 kts 178°
2026-05-08 06:47 9.93614 106.64019 18484 ft 392 kts 179°
2026-05-08 06:47 9.90877 106.63988 18895 ft 394 kts 177°
2026-05-08 06:47 9.88128 106.63957 19276 ft 396 kts 179°
2026-05-08 06:48 9.85399 106.63923 19651 ft 398 kts 178°
2026-05-08 06:48 9.82586 106.63885 20050 ft 399 kts 178°
2026-05-08 06:48 9.79835 106.63851 20411 ft 402 kts 179°
2026-05-08 06:48 9.77029 106.63820 20740 ft 404 kts 179°
2026-05-08 06:49 9.74207 106.63789 21114 ft 406 kts 179°
2026-05-08 06:49 9.71375 106.63757 21452 ft 408 kts 179°
2026-05-08 06:49 9.68520 106.63725 21815 ft 410 kts 179°
2026-05-08 06:49 9.65659 106.63692 22191 ft 411 kts 178°
2026-05-08 06:50 9.62790 106.63658 22515 ft 414 kts 179°
2026-05-08 06:50 9.59906 106.63624 22873 ft 415 kts 179°
2026-05-08 06:50 9.57012 106.63589 23249 ft 416 kts 179°
2026-05-08 06:50 9.54103 106.63554 23517 ft 419 kts 180°
2026-05-08 06:51 9.51182 106.63520 23784 ft 420 kts 180°
2026-05-08 06:51 9.48248 106.63490 24042 ft 423 kts 180°
2026-05-08 06:51 9.45329 106.63457 24277 ft 426 kts 180°
2026-05-08 06:51 9.42360 106.63423 24572 ft 427 kts 179°
2026-05-08 06:52 9.39380 106.63392 24845 ft 429 kts 180°
2026-05-08 06:52 9.36392 106.63359 25126 ft 430 kts 179°
2026-05-08 06:52 9.33385 106.63326 25396 ft 432 kts 179°
2026-05-08 06:52 9.30368 106.63292 25641 ft 434 kts 180°
2026-05-08 06:53 9.27340 106.63257 25907 ft 436 kts 180°
2026-05-08 06:53 9.24297 106.63223 26144 ft 439 kts 180°
2026-05-08 06:53 9.21237 106.63187 26386 ft 441 kts 180°
2026-05-08 06:53 9.18154 106.63151 26653 ft 442 kts 180°
2026-05-08 06:54 9.15071 106.63116 26899 ft 444 kts 180°
2026-05-08 06:54 9.11977 106.63082 27187 ft 445 kts 180°
2026-05-08 06:54 9.08871 106.63047 27442 ft 448 kts 180°
2026-05-08 06:54 9.05748 106.63011 27668 ft 450 kts 180°
2026-05-08 06:55 9.02607 106.62974 27911 ft 452 kts 180°
2026-05-08 06:55 8.99456 106.62938 28167 ft 454 kts 180°
2026-05-08 06:55 8.96286 106.62902 28418 ft 456 kts 180°
2026-05-08 06:55 8.93145 106.62867 28654 ft 458 kts 180°
2026-05-08 06:56 8.89942 106.62832 28903 ft 460 kts 180°
2026-05-08 06:56 8.86730 106.62797 29140 ft 462 kts 180°
2026-05-08 06:56 8.83500 106.62760 29366 ft 464 kts 180°
2026-05-08 06:56 8.80272 106.62585 29595 ft 466 kts 188°
2026-05-08 06:57 8.77120 106.61802 29801 ft 468 kts 200°
2026-05-08 06:57 8.74180 106.60380 29981 ft 470 kts 212°
2026-05-08 06:57 8.71570 106.58380 30166 ft 472 kts 223°
2026-05-08 06:57 8.69404 106.55888 30340 ft 473 kts 235°
2026-05-08 06:58 8.67691 106.53084 30500 ft 475 kts 239°
2026-05-08 06:58 8.66013 106.50208 30670 ft 476 kts 239°
2026-05-08 06:58 8.64329 106.47323 30844 ft 477 kts 239°
2026-05-08 06:58 8.62637 106.44431 31049 ft 476 kts 239°
2026-05-08 06:59 8.60947 106.41546 31294 ft 475 kts 239°
2026-05-08 06:59 8.59264 106.38674 31552 ft 474 kts 239°
2026-05-08 06:59 8.57587 106.35808 31784 ft 473 kts 239°
2026-05-08 06:59 8.55914 106.32945 32038 ft 472 kts 239°
2026-05-08 07:00 8.54266 106.30123 32289 ft 471 kts 239°
2026-05-08 07:00 8.52601 106.27275 32539 ft 470 kts 239°
2026-05-08 07:00 8.50937 106.24433 32793 ft 469 kts 239°
2026-05-08 07:00 8.49277 106.21598 33036 ft 468 kts 239°
2026-05-08 07:01 8.47620 106.18767 33284 ft 467 kts 239°
2026-05-08 07:01 8.45965 106.15940 33547 ft 466 kts 239°
2026-05-08 07:01 8.44317 106.13124 33789 ft 465 kts 239°
2026-05-08 07:01 8.42669 106.10304 34008 ft 464 kts 239°
2026-05-08 07:02 8.41047 106.07539 34236 ft 463 kts 239°
2026-05-08 07:02 8.39403 106.04739 34458 ft 463 kts 239°
2026-05-08 07:02 8.37762 106.01946 34676 ft 462 kts 239°
2026-05-08 07:02 8.36123 105.99157 34904 ft 461 kts 239°
2026-05-08 07:03 8.34483 105.96366 35091 ft 462 kts 239°
2026-05-08 07:03 8.32841 105.93572 35295 ft 462 kts 239°
2026-05-08 07:03 8.31205 105.90778 35514 ft 461 kts 239°
2026-05-08 07:03 8.29574 105.87991 35728 ft 461 kts 239°
2026-05-08 07:04 8.27941 105.85204 35933 ft 460 kts 239°
2026-05-08 07:04 8.26309 105.82426 36145 ft 460 kts 239°
2026-05-08 07:04 8.24674 105.79646 36345 ft 459 kts 239°
2026-05-08 07:04 8.23055 105.76899 36550 ft 459 kts 239°
2026-05-08 07:05 8.21424 105.74129 36741 ft 458 kts 239°
2026-05-08 07:05 8.19796 105.71367 36936 ft 458 kts 239°
2026-05-08 07:05 8.18172 105.68607 37118 ft 457 kts 239°
2026-05-08 07:05 8.16550 105.65847 37299 ft 457 kts 240°
2026-05-08 07:06 8.14934 105.63092 37490 ft 456 kts 239°
2026-05-08 07:06 8.13318 105.60341 37703 ft 455 kts 239°
2026-05-08 07:06 8.10091 105.54853 37789 ft 454 kts 239°
2026-05-08 07:07 8.06873 105.49368 37788 ft 454 kts 239°
2026-05-08 07:07 8.03651 105.43891 37792 ft 455 kts 239°
2026-05-08 07:08 8.00428 105.38420 37791 ft 456 kts 239°
2026-05-08 07:08 7.97177 105.32908 37792 ft 457 kts 239°
2026-05-08 07:09 7.93920 105.27378 37801 ft 458 kts 239°
2026-05-08 07:09 7.90687 105.21885 37809 ft 458 kts 239°
2026-05-08 07:10 7.87438 105.16356 37813 ft 458 kts 239°
2026-05-08 07:10 7.84183 105.10830 37814 ft 458 kts 239°
2026-05-08 07:11 7.80919 105.05293 37815 ft 458 kts 239°
2026-05-08 07:11 7.77657 104.99759 37815 ft 459 kts 239°
2026-05-08 07:12 7.74391 104.94225 37816 ft 459 kts 239°
2026-05-08 07:12 7.71125 104.88685 37815 ft 459 kts 239°
2026-05-08 07:13 7.67888 104.83196 37817 ft 458 kts 239°
2026-05-08 07:13 7.64618 104.77675 37817 ft 458 kts 240°
2026-05-08 07:14 7.61350 104.72143 37817 ft 458 kts 240°
2026-05-08 07:14 7.58088 104.66614 37820 ft 458 kts 240°
2026-05-08 07:15 7.54829 104.61086 37817 ft 459 kts 240°
2026-05-08 07:15 7.51558 104.55559 37814 ft 459 kts 240°
2026-05-08 07:16 7.48285 104.50033 37817 ft 459 kts 240°
2026-05-08 07:16 7.45014 104.44507 37817 ft 459 kts 240°
2026-05-08 07:17 7.41744 104.38988 37818 ft 459 kts 239°
2026-05-08 07:17 7.38496 104.33498 37818 ft 459 kts 240°
2026-05-08 07:18 7.35226 104.27974 37817 ft 459 kts 239°
2026-05-08 07:18 7.31953 104.22449 37814 ft 459 kts 239°
2026-05-08 07:19 7.28678 104.16920 37814 ft 460 kts 239°
2026-05-08 07:19 7.25391 104.11378 37813 ft 460 kts 239°
2026-05-08 07:20 7.22083 104.05843 37817 ft 461 kts 239°
2026-05-08 07:20 7.18761 104.00318 37819 ft 461 kts 239°
2026-05-08 07:21 7.15433 103.94790 37821 ft 461 kts 239°
2026-05-08 07:21 7.12133 103.89291 37822 ft 461 kts 239°
2026-05-08 07:22 7.08821 103.83754 37824 ft 461 kts 239°
2026-05-08 07:22 7.05504 103.78212 37825 ft 461 kts 239°
2026-05-08 07:23 7.02184 103.72686 37823 ft 461 kts 239°
2026-05-08 07:23 6.98879 103.67192 37816 ft 462 kts 239°
2026-05-08 07:24 6.95310 103.61822 37818 ft 462 kts 227°
2026-05-08 07:24 6.90297 103.57823 37816 ft 461 kts 207°
2026-05-08 07:25 6.84275 103.55632 37814 ft 461 kts 197°
2026-05-08 07:26 6.75052 103.52810 37814 ft 462 kts 197°
2026-05-08 07:26 6.69937 103.51234 37816 ft 462 kts 197°
2026-05-08 07:27 6.63777 103.49349 37816 ft 463 kts 197°
2026-05-08 07:27 6.57610 103.47463 37814 ft 464 kts 197°
2026-05-08 07:28 6.51423 103.45567 37816 ft 464 kts 197°
2026-05-08 07:28 6.45241 103.43676 37811 ft 464 kts 197°
2026-05-08 07:29 6.39053 103.41789 37813 ft 464 kts 197°
2026-05-08 07:29 6.32890 103.39910 37810 ft 465 kts 197°
2026-05-08 07:30 6.26680 103.38014 37811 ft 465 kts 196°
2026-05-08 07:30 6.20534 103.36132 37810 ft 465 kts 196°
2026-05-08 07:31 6.14340 103.34232 37809 ft 465 kts 196°
2026-05-08 07:31 6.08144 103.32335 37810 ft 465 kts 196°
2026-05-08 07:32 6.01954 103.30447 37810 ft 465 kts 196°
2026-05-08 07:32 5.95757 103.28560 37811 ft 465 kts 196°
2026-05-08 07:33 5.89563 103.26670 37802 ft 465 kts 196°
2026-05-08 07:33 5.83360 103.24777 37800 ft 466 kts 196°
2026-05-08 07:34 5.77149 103.22879 37803 ft 466 kts 196°
2026-05-08 07:34 5.70967 103.20888 37803 ft 467 kts 199°
2026-05-08 07:35 5.64908 103.18662 37800 ft 467 kts 200°
2026-05-08 07:35 5.58817 103.16371 37801 ft 467 kts 199°
2026-05-08 07:36 5.52708 103.14144 37801 ft 467 kts 198°
2026-05-08 07:36 5.46591 103.11952 37780 ft 467 kts 198°
2026-05-08 07:37 5.40584 103.09495 37775 ft 468 kts 210°
2026-05-08 07:37 5.37932 103.07602 37778 ft 469 kts 221°
2026-05-08 07:37 5.35674 103.05249 37778 ft 469 kts 232°
2026-05-08 07:37 5.33880 103.02515 37776 ft 469 kts 243°
2026-05-08 07:38 5.32563 102.99525 37781 ft 469 kts 248°
2026-05-08 07:38 5.30111 102.93455 37783 ft 470 kts 248°
2026-05-08 07:39 5.27643 102.87380 37795 ft 470 kts 248°
2026-05-08 07:39 5.25172 102.81302 37800 ft 470 kts 248°
2026-05-08 07:40 5.22670 102.75234 37806 ft 470 kts 244°
2026-05-08 07:40 5.21018 102.72409 37810 ft 470 kts 233°
2026-05-08 07:40 5.18941 102.69939 37814 ft 468 kts 223°
2026-05-08 07:41 5.13636 102.66195 37817 ft 465 kts 207°
2026-05-08 07:41 5.07885 102.63187 37813 ft 465 kts 207°
2026-05-08 07:42 5.02196 102.60186 37808 ft 465 kts 207°
2026-05-08 07:42 4.96461 102.57166 37810 ft 465 kts 207°
2026-05-08 07:43 4.90728 102.54152 37809 ft 465 kts 206°
2026-05-08 07:43 4.84986 102.51156 37811 ft 464 kts 206°
2026-05-08 07:44 4.79256 102.48159 37814 ft 465 kts 207°
2026-05-08 07:44 4.73520 102.45154 37813 ft 464 kts 207°
2026-05-08 07:45 4.67832 102.42170 37811 ft 464 kts 207°
2026-05-08 07:45 4.62093 102.39169 37805 ft 464 kts 207°
2026-05-08 07:46 4.56363 102.36171 37803 ft 465 kts 207°
2026-05-08 07:46 4.50630 102.33172 37803 ft 465 kts 207°
2026-05-08 07:47 4.44888 102.30177 37794 ft 465 kts 207°
2026-05-08 07:47 4.39143 102.27179 37799 ft 465 kts 207°
2026-05-08 07:47 4.36275 102.25679 37649 ft 465 kts 207°
2026-05-08 07:48 4.33414 102.24179 37383 ft 464 kts 207°
2026-05-08 07:48 4.30549 102.22679 37114 ft 463 kts 207°
2026-05-08 07:48 4.27686 102.21183 36880 ft 464 kts 207°
2026-05-08 07:48 4.24856 102.19704 36633 ft 464 kts 207°
2026-05-08 07:49 4.21986 102.18206 36383 ft 464 kts 207°
2026-05-08 07:49 4.19118 102.16707 35977 ft 465 kts 207°
2026-05-08 07:49 4.16238 102.15202 35195 ft 468 kts 207°
2026-05-08 07:49 4.13336 102.13690 34399 ft 471 kts 207°
2026-05-08 07:50 4.10417 102.12169 33541 ft 475 kts 206°
2026-05-08 07:50 4.07480 102.10633 32585 ft 478 kts 207°
2026-05-08 07:50 4.04547 102.09099 32077 ft 471 kts 206°
2026-05-08 07:50 4.01657 102.07589 31522 ft 467 kts 206°
2026-05-08 07:51 3.98785 102.06091 30952 ft 464 kts 206°
2026-05-08 07:51 3.95931 102.04603 30382 ft 461 kts 206°
2026-05-08 07:51 3.93131 102.03141 29842 ft 457 kts 206°
2026-05-08 07:51 3.90320 102.01672 29228 ft 453 kts 206°
2026-05-08 07:52 3.87543 102.00223 28683 ft 448 kts 206°
2026-05-08 07:52 3.84795 101.98789 28137 ft 442 kts 206°
2026-05-08 07:52 3.82081 101.97373 27602 ft 438 kts 206°
2026-05-08 07:52 3.79395 101.95973 27075 ft 433 kts 206°
2026-05-08 07:53 3.76741 101.94590 26559 ft 428 kts 206°
2026-05-08 07:53 3.74112 101.93221 26063 ft 424 kts 206°
2026-05-08 07:53 3.71512 101.91864 25574 ft 419 kts 206°
2026-05-08 07:53 3.68896 101.90603 25102 ft 413 kts 199°
2026-05-08 07:54 3.66158 101.89814 24642 ft 407 kts 188°
2026-05-08 07:54 3.63346 101.89529 24237 ft 406 kts 179°
2026-05-08 07:54 3.60520 101.89440 23814 ft 405 kts 179°
2026-05-08 07:54 3.57711 101.89348 23389 ft 402 kts 180°
2026-05-08 07:55 3.54918 101.89253 22922 ft 400 kts 180°
2026-05-08 07:55 3.52145 101.89158 22509 ft 398 kts 180°
2026-05-08 07:55 3.49388 101.89060 22095 ft 395 kts 180°
2026-05-08 07:55 3.46647 101.88963 21688 ft 393 kts 180°
2026-05-08 07:56 3.43923 101.88868 21277 ft 390 kts 180°
2026-05-08 07:56 3.41254 101.88775 20870 ft 388 kts 180°
2026-05-08 07:56 3.38562 101.88681 20472 ft 385 kts 180°
2026-05-08 07:56 3.35891 101.88587 20071 ft 383 kts 179°
2026-05-08 07:57 3.33201 101.88493 19664 ft 381 kts 179°
2026-05-08 07:57 3.30594 101.88405 19276 ft 379 kts 179°
2026-05-08 07:57 3.27968 101.88317 18887 ft 377 kts 179°
2026-05-08 07:57 3.25355 101.88229 18491 ft 375 kts 179°
2026-05-08 07:58 3.22755 101.88140 18101 ft 373 kts 179°
2026-05-08 07:58 3.20137 101.88050 17671 ft 370 kts 179°
2026-05-08 07:58 3.17569 101.87958 17277 ft 368 kts 179°
2026-05-08 07:58 3.15047 101.87868 16904 ft 366 kts 179°
2026-05-08 07:59 3.12478 101.87779 16506 ft 363 kts 179°
2026-05-08 07:59 3.09991 101.87694 16133 ft 361 kts 179°
2026-05-08 07:59 3.07481 101.87607 15757 ft 359 kts 179°
2026-05-08 07:59 3.04994 101.87522 15385 ft 357 kts 179°
2026-05-08 08:00 3.02520 101.87437 15018 ft 355 kts 179°
2026-05-08 08:00 3.00060 101.87355 14648 ft 353 kts 179°
2026-05-08 08:00 2.97611 101.87273 14267 ft 351 kts 179°
2026-05-08 08:00 2.95171 101.87192 13902 ft 350 kts 179°
2026-05-08 08:01 2.92746 101.87110 13535 ft 347 kts 179°
2026-05-08 08:01 2.90339 101.87022 13147 ft 345 kts 181°
2026-05-08 08:01 2.87985 101.86574 12784 ft 346 kts 197°
2026-05-08 08:01 2.85823 101.85523 12416 ft 346 kts 212°
2026-05-08 08:02 2.84008 101.83953 11979 ft 345 kts 227°
2026-05-08 08:02 2.82508 101.82093 11539 ft 342 kts 226°
2026-05-08 08:02 2.80582 101.80777 11142 ft 334 kts 197°
2026-05-08 08:02 2.78326 101.80542 10784 ft 326 kts 168°
2026-05-08 08:03 2.76245 101.81292 10460 ft 321 kts 148°
2026-05-08 08:03 2.74423 101.82567 10143 ft 319 kts 142°
2026-05-08 08:03 2.72635 101.83820 9928 ft 308 kts 144°
2026-05-08 08:03 2.70888 101.84981 9811 ft 296 kts 145°
2026-05-08 08:04 2.69178 101.86097 9698 ft 293 kts 146°
2026-05-08 08:04 2.67473 101.87212 9392 ft 292 kts 145°
2026-05-08 08:04 2.65776 101.88330 8956 ft 291 kts 145°
2026-05-08 08:04 2.64090 101.89447 8509 ft 290 kts 145°
2026-05-08 08:05 2.62410 101.90567 8063 ft 290 kts 145°
2026-05-08 08:05 2.60734 101.91687 7652 ft 289 kts 145°
2026-05-08 08:05 2.59071 101.92799 7224 ft 288 kts 146°
2026-05-08 08:05 2.57416 101.93908 6845 ft 285 kts 145°
2026-05-08 08:06 2.55774 101.95007 6546 ft 279 kts 147°
2026-05-08 08:06 2.54014 101.95682 6404 ft 268 kts 175°
2026-05-08 08:06 2.52243 101.95325 6279 ft 258 kts 209°
2026-05-08 08:06 2.50977 101.94123 6145 ft 248 kts 235°
2026-05-08 08:07 2.50037 101.92717 6011 ft 238 kts 235°
2026-05-08 08:07 2.49397 101.91218 5785 ft 234 kts 264°
2026-05-08 08:07 2.49629 101.89620 5640 ft 236 kts 296°
2026-05-08 08:07 2.50672 101.88387 5414 ft 233 kts 326°
2026-05-08 08:08 2.51562 101.87780 5230 ft 234 kts 328°
2026-05-08 08:08 2.52917 101.86892 4947 ft 232 kts 328°
2026-05-08 08:08 2.54697 101.85707 4550 ft 231 kts 328°
2026-05-08 08:08 2.55597 101.85103 4349 ft 229 kts 327°
2026-05-08 08:09 2.56917 101.84218 4050 ft 228 kts 328°
2026-05-08 08:09 2.58234 101.83335 3758 ft 227 kts 328°
2026-05-08 08:09 2.59550 101.82453 3471 ft 228 kts 327°
2026-05-08 08:09 2.60862 101.81573 3187 ft 227 kts 327°
2026-05-08 08:10 2.62175 101.80693 2900 ft 228 kts 327°
2026-05-08 08:10 2.63494 101.79809 2613 ft 228 kts 326°
2026-05-08 08:10 2.64808 101.78929 2315 ft 226 kts 326°
2026-05-08 08:10 2.66110 101.78056 2046 ft 223 kts 325°
2026-05-08 08:11 2.67368 101.77212 1766 ft 211 kts 326°
2026-05-08 08:11 2.68548 101.76422 1493 ft 198 kts 325°
2026-05-08 08:11 2.69660 101.75677 1268 ft 186 kts 324°
2026-05-08 08:11 2.70706 101.74976 1022 ft 175 kts 324°
2026-05-08 08:12 2.71674 101.74326 841 ft 162 kts 325°
2026-05-08 08:12 2.72588 101.73714 641 ft 153 kts 326°
2026-05-08 08:12 2.73454 101.73133 453 ft 147 kts 326°
2026-05-08 08:12 2.74297 101.72567 259 ft 145 kts 327°
2026-05-08 08:13 2.75124 101.72008 87 ft 143 kts 326°
2026-05-08 08:13 2.75861 101.71517 57 ft 107 kts 326°
2026-05-08 08:13 2.76337 101.71199 56 ft 58 kts 326°
2026-05-08 08:13 2.76535 101.70994 56 ft 28 kts 284°
2026-05-08 08:14 2.76562 101.70845 51 ft 17 kts 214°
2026-05-08 08:14 2.76468 101.70891 52 ft 16 kts 146°
2026-05-08 08:14 2.76364 101.70957 55 ft 19 kts 148°
2026-05-08 08:14 2.76248 101.71029 49 ft 21 kts 146°
2026-05-08 08:15 2.76124 101.71114 55 ft 22 kts 144°
2026-05-08 08:15 2.75991 101.71206 52 ft 24 kts 146°
2026-05-08 08:15 2.75868 101.71202 56 ft 20 kts 242°
2026-05-08 08:15 2.75800 101.71074 52 ft 22 kts 242°
2026-05-08 08:16 2.75705 101.70953 54 ft 23 kts 231°
2026-05-08 08:16 2.75628 101.70828 53 ft 19 kts 237°
2026-05-08 08:16 2.75533 101.70818 55 ft 0 kts 148°